Location: Newark
(44.3681°N, 100.3364°W)
Time: 02:15:49
(UTC+00:00)

Vanguard 1 - Pass Details

Date: 29 February 2020
Orbit: 649 x 3833 km, 34.2° (Epoch: 06 April)

Event Time Altitude Azimuth Distance (km) Brightness Sun altitude
Rises 19:44:27 0° 281° (W) 7,108 14.5 36.8°
Reaches altitude 10° 19:51:32 10° 267° (W) 5,484 14.2 36.5°
Maximum altitude 20:00:45 19° 230° (SW) 3,794 14.3 35.9°
Drops below altitude 10° 20:07:19 10° 188° (S) 3,728 14.3 35.5°
Sets 20:10:54 0° 171° (S) 4,264 14.1 35.2°
